Regional Weather Roundup
Issued by NWS Midland/Odessa, TX

Skip options and go directly to product.
Home | Oldest Version | Previous Version | Current Version | All | Graphics & Text | Save Text | Print | Product List | Glossary On

Skip product version selection by date and time.   
188
ASUS44 KMAF 301610
RWRMAF
MIDLAND AREA WEATHER ROUNDUP
NATIONAL WEATHER SERVICE MIDLAND TX
1100 AM CDT SAT AUG 30 2014

...IN SOUTHWEST TEXAS AND SOUTHEAST NEW MEXICO...

CITY           SKY/WX    TMP DP  RH WIND       PRES   REMARKS
ALPINE         SUNNY     82  58  45 CALM      30.19S
ANDREWS        FAIR      84  63  48 W3        30.07S
ARTESIA        NOT AVBL
BIG SPRING     SUNNY     84  67  56 S5        30.07S
CARLSBAD       SUNNY     83  62  49 S3        30.06F
DRYDEN           N/A     88  68  51 MISG      30.00S
FORT STOCKTON  SUNNY     84  63  49 CALM      30.05S
GUAD PASS      SUNNY     80  55  42 E12       30.23R
HOBBS          SUNNY     82  63  51 S6        30.11R
MARFA          SUNNY     79  63  57 S3        30.20R
MIDLAND AIRPK  SUNNY     84  64  51 S5        30.06S
MIDLAND INTL   SUNNY     83  66  56 S7        30.05S
ODESSA         SUNNY     83  64  52 VRB7      30.06S
PECOS          SUNNY     81  64  54 CALM      30.03F
PRESIDIO       FAIR      87  63  44 E5        30.03R
SEMINOLE       SUNNY     82  62  51 SW5       30.10R
SNYDER         SUNNY     82  68  63 W8        30.05S
WINK           SUNNY     86  64  47 SW5       30.03S
$$
...OTHER STATIONS IN TEXAS...

CITY           SKY/WX    TMP DP  RH WIND       PRES   REMARKS
ABILENE        SUNNY     87  69  54 NW8       30.02R
AMARILLO       SUNNY     83  61  47 CALM      30.11S
AUSTIN         PTSUNNY   83  72  69 CALM      29.96S
BROWNSVILLE    CLOUDY    81  77  88 CALM      29.92R
CORPUS CHRISTI CLOUDY    78  75  90 S3        29.92F
DALLAS FTW     MOSUNNY   83  72  69 S5        29.96F
DEL RIO        SUNNY     87  70  56 E7        29.94S
EL PASO        MOSUNNY   83  52  34 NE5       30.09R
HOUSTON INT    PTSUNNY   84  72  65 CALM      29.95R
LUBBOCK        MOSUNNY   81  64  56 SW8       30.09S
SAN ANGELO     SUNNY     85  69  58 VRB5      30.01S
SAN ANTONIO    MOSUNNY   86  71  60 SE7       29.97S
WACO           CLOUDY    80  71  74 NW3       29.98R
WICHITA FALLS  NOT AVBL
$$
...OTHER LOCATIONS IN NEW MEXICO...

CITY           SKY/WX    TMP DP  RH WIND       PRES   REMARKS
ALAMAGORDO     SUNNY     81  50  34 W6        30.13R
ALBUQUERQUE    PTSUNNY   74  42  31 CALM      30.20S
CANNON AFB     SUNNY     80  60  50 SW8       30.14
CLOVIS           N/A     81  59  47 SW9G17    30.16S
HOLLOMAN AFB   SUNNY     82  51  33 W3        30.10
ROSWELL        SUNNY     80  58  46 VRB5      30.09S
RUIDOSO        SUNNY     72  48  43 NE3       30.32S
SANTA FE       SUNNY     72  43  35 S6        30.25S
TRUTH OR CONSE SUNNY     78  49  35 CALM      30.15R
TUCUMCARI      SUNNY     80  59  48 VRB3      30.11S
$$

USA.gov is the U.S. government's official web portal to all federal, state and local government web resources and services.